Regional Weather Roundup
Issued by NWS

Home | Current Version | Previous Version | Graphics & Text | Print | Product List | Glossary On
Versions: 1 2 3 4 5 6 7 8 9 10 11 12 13 14 15 16 17 18 19 20 21 22 23 24 25 26 27 28 29 30 31 32 33 34 35 36 37 38 39 40 41 42 43 44 45 46 47 48 49 50
000
ASUS45 KSLC 271110
RWRUT

UTAH REGIONAL WEATHER ROUNDUP
NATIONAL WEATHER SERVICE SALT LAKE CITY UT
500 AM MDT MON MAR 27 2017

UTZ001>011-023>025-271200-

NORTHERN UTAH

CITY           SKY/WX    TMP DP  RH WIND       PRES   REMARKS
BRIGHAM CITY     N/A     46  34  63 CALM      29.88S
HILL AFB       CLOUDY    44  31  60 SE8       29.87F
LOGAN          PTCLDY    44  34  67 SE6       29.87F
OGDEN          CLOUDY    43  33  68 S9        29.86F
SALT LAKE CITY CLOUDY    48  37  65 E6        29.87F
WENDOVER       MOCLDY    43  35  73 NW5       29.85F
HEBER CITY     CLOUDY    37  30  75 CALM      29.91S

$$

UTZ011>015-024>027-271200-

CENTRAL/NORTHEAST UTAH

CITY           SKY/WX    TMP DP  RH WIND       PRES   REMARKS
PROVO AIRPORT  LGT RAIN  46  36  68 SE5       29.89F
MOAB/CANYONLAN CLOUDY    44  24  45 CALM      29.88F
DELTA          CLOUDY    45  34  65 S8        29.87F
PRICE          CLOUDY    40  30  67 N6        29.90F
RICHFIELD      CLEAR     36  36 100 NW1       29.92F
ROOSEVELT      CLOUDY    43  34  70 E7        29.94S
VERNAL         CLOUDY    40  32  73 NW3       29.92F

$$

UTZ013>016-019>022-027-271200-

SOUTHERN UTAH

CITY           SKY/WX    TMP DP  RH WIND       PRES   REMARKS
BRYCE CANYON   CLOUDY    32  27  81 CALM      29.97F
CEDAR CITY     CLOUDY    44  31  60 S5        29.89F
MILFORD        MOCLDY    43  33  68 SW10      29.87F
HANKSVILLE     CLOUDY    43  30  61 CALM      29.91F
KANAB          CLOUDY    39  34  81 NE2       29.97F
BLANDING       PTCLDY    38  23  53 NE6       30.03S WCI  34

$$

REGIONAL REPORTS     COLORADO/ARIZONA

CITY           SKY/WX    TMP DP  RH WIND       PRES   REMARKS
CRAIG, CO      CLOUDY    31  25  78 CALM      29.96F
GRAND JUNCTION CLOUDY    46  29  51 SE7       29.91F
RIFLE, CO      CLOUDY    35  28  75 CALM      29.96S
MONTROSE, CO   PTCLDY    38  29  70 SE13      29.97F WCI  30
CORTEZ, CO     CLEAR     27  25  92 NE3       29.99S
COLORADO CITY    N/A     37  34  87 S3        29.94F
PAGE, AZ       CLOUDY    49  32  52 SE3       29.91F
GRAND CANYON   CLEAR     27  25  92 CALM      30.00F
KINGMAN, AZ    CLEAR     49  25  39 SE3       29.89F
FLAGSTAFF, AZ  CLEAR     30  24  78 CALM      30.02F

$$

REGIONAL REPORTS    NEVADA/IDAHO/WYOMING

CITY           SKY/WX    TMP DP  RH WIND       PRES   REMARKS
LAS VEGAS, NV  CLEAR     61  37  41 S12G17    29.80F
ELY, NY        PTCLDY    37  30  75 S14       29.87F WCI  28
ELKO, NV       MOCLDY    39  31  72 SW6       29.90F WCI  35
POCATELLO, ID  CLOUDY    40  36  86 CALM      29.87F
BURLEY, ID     LGT RAIN  38  36  92 CALM      29.85S
EVANSTON, WY   FLURRIES  35  24  64 W6        29.92S WCI  30
ROCK SPRINGS,  CLOUDY    37  26  64 CALM      29.94F
KEMMERER, WY     N/A     30  27  86 CALM      29.94S

$$



USA.gov is the U.S. government's official web portal to all federal, state and local government web resources and services.